#timestamp,LO_Frequency,Hit,StdDev 
1588914695.6,286046972.7,P
1588914715.4,286046973.4,P
1588914735.3,286046971.0,P
1588914755.1,286046973.2,Y
1588914775.9,286047000.2,P
1588914795.7,286047000.6,N
1588914815.5,286047000.4,N
1588914835.4,286047000.0,N
1588914855.2,286047002.8,N
1588914875.0,286047002.8,N
1588914875.9,286047002.8,N
1588914895.8,286047000.2,N
1588914915.6,286047000.3,N
1588914935.5,286047000.9,N
1588914955.3,286047000.6,N
1588914975.1,286047000.7,N
1588914995.9,286047001.2,N
1588915015.7,286047001.1,N
1588915035.5,286046998.3,N
1588915055.4,286046997.0,N
1588915075.2,286046997.6,N
1588915095.0,286046996.2,N
1588915096.0,286046996.2,N
1588915115.8,286046996.8,N
1588915135.6,286047001.0,N
1588915155.5,286047001.8,N
1588915175.3,286047005.2,N
1588915195.1,286047006.4,N
1588915215.9,286047009.2,N
1588915235.7,286047008.7,N
1588915255.6,286047006.5,N
1588915275.4,286047008.8,N
1588915295.2,286047011.9,N
1588915315.1,286047007.3,N
1588915316.0,286047007.3,N
1588915335.8,286047007.5,N
1588915355.6,286047005.5,N
1588915375.5,286047003.5,N
1588915395.3,286047003.0,N
1588915415.2,286047004.1,N
1588915435.9,286047004.3,N
1588915455.7,286046999.7,N
1588915475.6,286046999.7,N
1588915495.4,286047000.3,N
1588915515.2,286047000.6,N
1588915535.1,286046998.4,N
1588915536.0,286046998.4,N
1588915555.8,286046999.3,N
1588915575.7,286046999.6,N
1588915595.5,286046999.5,N
1588915615.3,286046996.6,N
1588915635.2,286046997.0,N
1588915655.0,286046997.7,N
1588915655.9,286046997.7,N
1588915675.7,286046997.6,N
1588915695.6,286046995.7,N
1588915715.4,286046996.0,N
1588915735.3,286046994.0,N
1588915755.1,286046994.6,N
1588915775.8,286046993.9,N
1588915795.7,286046994.5,N
1588915815.5,286046996.1,N
1588915835.3,286046996.1,N
1588915855.2,286046994.1,N
1588915875.0,286046994.8,N
1588915875.9,286046994.8,N
1588915895.8,286046993.0,N
1588915915.6,286046991.2,N
1588915935.4,286046989.7,Y
1588915955.3,286046993.2,P
1588915975.1,286046993.1,P
1588915995.9,286046992.8,P
1588916015.7,286046991.3,Y
1588916035.5,286046995.2,P
1588916055.4,286046996.4,P
1588916075.2,286046993.3,P
1588916095.0,286046996.4,Y
1588916096.0,286046996.4,P
1588916115.8,286047001.1,N
1588916135.6,286047000.8,N
1588916155.5,286047001.0,N
1588916175.3,286047000.8,N
1588916195.1,286047000.3,N
1588916215.9,286046999.7,N
1588916235.7,286047001.9,N
1588916255.6,286047002.8,N
1588916275.4,286046998.5,N
1588916295.2,286046996.5,N
1588916315.1,286046997.4,N
1588916316.0,286046997.4,N
1588916335.8,286046995.4,N
1588916355.6,286046995.7,N
1588916375.5,286046994.9,N
1588916395.3,286046995.4,N
1588916415.2,286046993.8,N
1588916435.9,286046995.4,N
1588916455.7,286046996.1,N
1588916475.6,286046996.1,N
1588916495.4,286046993.6,N
1588916515.2,286046996.4,N
1588916535.1,286046994.2,N
1588916536.0,286046994.2,N
1588916555.8,286046994.6,N
1588916575.7,286046994.4,N
1588916595.5,286046996.0,N
1588916615.3,286046995.6,N
1588916635.2,286046997.6,N
1588916655.0,286046995.8,N
1588916655.9,286046995.8,N
1588916675.7,286046996.1,N
1588916695.6,286046996.0,N
1588916715.4,286046993.5,N
1588916735.3,286046992.2,Y
1588916755.1,286046996.0,P
1588916775.8,286046996.1,P
1588916795.7,286046995.8,P
1588916815.5,286046995.9,Y
1588916835.4,286047000.4,P
1588916855.2,286046998.5,N
1588916875.0,286046999.2,N
1588916875.9,286046999.2,N
1588916895.8,286046997.4,N
1588916915.6,286046997.0,N
1588916935.4,286046995.6,Y
1588916955.3,286046996.9,P
1588916975.1,286046997.0,P
1588916995.9,286046996.5,P
1588917015.7,286046996.5,Y
1588917035.5,286047001.2,P
1588917055.4,286046994.2,N
1588917075.2,286046989.0,P
1588917095.0,286046988.3,N
1588917096.0,286046988.3,N
1588917115.8,286046983.1,Y
1588917135.6,286046986.3,P
1588917155.5,286046982.3,P
1588917175.3,286046979.5,P
1588917195.1,286046977.9,Y
1588917215.9,286046990.3,P
1588917235.7,286046988.6,P
1588917255.6,286046989.9,P
1588917275.4,286046987.7,Y
1588917295.2,286046996.8,P
1588917315.1,286046997.2,N
1588917316.0,286046997.2,N
1588917335.8,286046997.1,N
1588917355.7,286047001.0,N
1588917375.5,286046999.9,N
1588917395.3,286046998.5,N
1588917415.2,286046998.2,N
1588917435